Content
SEND FEEDBACK

Daily
Averages
Monthly
Summary
United States of America

BELLEFONTE, DELAWARE


Home > North America > United States > Delaware
Elevation: 269 feet     Latitude: 39 46N     Longitude: 075 31W

WEATHER
 
SELECT A DAY
Number of Records: 202,093;   Date Range: 1/1/95 - 7/26/14
 
SHARE

PRINT THIS DATA

[ ← Previous Day ]
WEATHER ALMANAC - FEBRUARY 24, 2014
[ Next Day → ]
[ °C ]   °F
Weather ElementAverageHighLow
Temperature35.6 °F41 °F (2:51 pm)28.9 °F (10:51 pm)
Dewpoint16.8 °F34 °F (1:51 am)8.1 °F (6:51 pm)
Humidity49.9 %89 % (1:51 am)29 % (2:51 pm)
Barometer30.02 in30.15 in (9:51 pm)29.91 in (3:51 am)
Wind Speed12.8 mph26.5 mph (4:51 pm)
Wind Gust34.5 mph (4:51 pm)
Weather ElementAverage
Visibility10 mi
Wind DirectionWNW (285.7 °)

Weather ElementTotal
Precipitation---
Heating Degree Days30.1 (Base 65)
Averaged from 23 records on February 24, 2014
WEATHER CONDITIONS BREAKOUT
WIND DIRECTION BREAKOUT
WEATHER BY HOUR - FEBRUARY 24, 2014
[ °C ]   °F
Local TimeTemperatureDewpointHumidityBarometerVisibilityWind DirectionWind SpeedGust SpeedPrecipitationEventsConditions
1:51 AM37.0 °F34.0 °F89 %29.92 in10.0 miSW (220°)5.8 mph0.00 inOvercast
2:51 AM37.0 °F34.0 °F89 %29.92 in10.0 miWSW (250°)5.8 mphOvercast
3:51 AM37.0 °F33.1 °F86 %29.91 in10.0 miWest (260°)6.9 mphClear
4:51 AM35.1 °F30.9 °F85 %29.92 in10.0 miWest (260°)5.8 mphClear
5:51 AM35.1 °F30.0 °F82 %29.94 in10.0 miWest (270°)6.9 mphClear
6:51 AM33.1 °F23.0 °F66 %29.96 in10.0 miWNW (290°)10.4 mphClear
7:51 AM35.1 °F19.9 °F54 %29.99 in10.0 miNW (310°)16.1 mphClear
8:51 AM36.0 °F19.0 °F50 %30.01 in10.0 miNW (320°)15.0 mphClear
9:51 AM37.0 °F17.1 °F44 %30.01 in10.0 miWNW (300°)13.8 mphClear
10:51 AM37.9 °F12.9 °F36 %30.02 in10.0 miNW (310°)15.0 mphClear
11:51 AM37.0 °F12.0 °F36 %30.02 in10.0 miWNW (300°)12.7 mph23.0 mphClear
12:51 PM39.0 °F10.9 °F32 %30.00 in10.0 miWNW (300°)21.9 mph27.6 mphClear
1:51 PM39.9 °F10.9 °F31 %29.98 in10.0 miWest (270°)18.4 mph27.6 mphClear
2:51 PM41.0 °F10.9 °F29 %29.99 in10.0 miWNW (290°)17.3 mph29.9 mphClear
3:51 PM39.9 °F10.9 °F31 %30.00 in10.0 miWNW (290°)21.9 mph27.6 mphClear
4:51 PM37.9 °F9.0 °F30 %30.03 in10.0 miWNW (290°)26.5 mph34.5 mphClear
5:51 PM36.0 °F9.0 °F33 %30.06 in10.0 miWNW (290°)21.9 mph25.3 mphClear
6:51 PM35.1 °F8.1 °F33 %30.09 in10.0 miWNW (300°)17.3 mph28.8 mphClear
7:51 PM34.0 °F9.0 °F35 %30.10 in10.0 miWNW (290°)12.7 mphClear
8:51 PM32.0 °F10.0 °F40 %30.12 in10.0 miWNW (290°)10.4 mphClear
9:51 PM30.0 °F10.0 °F43 %30.15 in10.0 miWNW (300°)4.6 mphClear
10:51 PM28.9 °F10.9 °F47 %30.14 in10.0 miNW (320°)3.5 mphClear
11:51 PM28.9 °F10.9 °F47 %30.15 in10.0 miWSW (250°)3.5 mphClear
Hourly data recorded from KILG, located miles away from Bellefonte, Delaware







STORIES FROM OUR PARTNERS